FENGYUN 1C DEB

Satellite information

Favourite Embed

Satellite Type and Status

DEBRISIN ORBIT

Key statistics

Satellite FENGYUN 1C DEB at a glance.

Uptime

9499

Days in orbit

Revolutions

≈ 14.7

Per day

Orbit

SSO

Sun Synchronous Orbit

Inclination

98.3

Latest

Satellite identification and parameters

Extended collection of information and parameters for FENGYUN 1C DEB.

Object identification

Identified? True

Debris? True

Object name: FENGYUN 1C DEB

International designator: 1999-025BDP

Object number (NORAD): 31021

Object ID (CCSDS): 31021

Country: PEOPLES REPUBLIC OF CHINA (PRC)

Current information (Y/N): Y

RCS size: SMALL

Orbital parameters

Period: 97.836 minutes

Inclination: 98.3347 deg

SMA: 7033.318 km

Apoapsis: 852.327 km

Periapsis: 458.04 km

RAAN: 235.6731 deg

Eccentricy: 0.0280299

Argument of periapsis: 205.7956 deg

Mean anomaly: 152.9049 deg

Mean motion: 14.71845927 rev/day

Mean motion (dot): 0.00010119 rev/day2

B* drag term: 0.00087168 1/REarth

Two-line elements (TLE)

Creation date: May 11, 2025, 10:21 p.m.

Reference frame: TEME

Reference center: EARTH

Epoch: May 11, 2025, 12:26 p.m. UTC

TLE line 0: 0 FENGYUN 1C DEB

TLE line 1: 1 31021U 99025BDP 25131.51827585 .00010119 00000-0 87168-3 0 9990

TLE line 2: 2 31021 98.3347 235.6731 0280299 205.7956 152.9049 14.71845927702630

Live tracking on map

Real-time ground track for satellite FENGYUN 1C DEB.

In-orbit conjunctions

A list of the most updated potential collisions computed for object FENGYUN 1C DEB.

Target Orbit TCA Probability of collision Miss distance Type
METEOR 1-17 DEB LEO 2024-09-28 12:03:08 0.0009860518 73.0 (m) DEBRIS
IRIDIUM 38 LEO 2024-08-11 11:55:29 0.0001100282 469.0 (m) PAYLOAD

Associated space launch

Chinese polar orbiting meteorological satellite

FENGYUN 1C DEB was lifted into orbit during the mission ‘Long March 4B | Feng Yun 1C’, on board a Long March 4B space rocket.

The launch took place on May 10, 1999, 1:33 a.m. from Launch Complex 7.

For more information about the launch, click the button.

Launch to space Long March 4B | Feng Yun 1C
Long March 4B | Feng Yun 1C

Agency: N/A

Status: Launch Successful

Launch date: May 10, 1999, 1:33 a.m. UTC

Rocket: Long March 4B

Launch pad: Launch Complex 7

Location: Taiyuan Satellite Launch Center, People's Republic of China

...

Latest news about this satellite

There are no fresh news available about this satellite. Check back as we update our databases every day.


Newsletter sign-up

Weekly statistics, charts and insights to help you stay on top of the space industry.